Flag for Saint Kitts and Nevis Weather past 2 weeks in Basseterre, Saint Kitts and Nevis

Now
86 °F

Scattered clouds.


Feels Like: 95 °F
Forecast: 82 / 85 °F
Wind: 15 mph from East

Location: Golden Rock

Current Time: Aug 3, 2015 at 12:09:01 PM

Latest Report: Aug 3, 2015 at 11:00 AM


Visibility: N/A

Pressure: 30.04 "Hg

Humidity: 70%

Dew point: 75 °F

Location of BasseterreLocation

Historic Weather in Basseterre — Graph

°F

Basseterre temperature yesterday

Maximum temperature yesterday: 88 °F (at 10:00 AM)
Minimum temperature yesterday: 79 °F (at 6:00 AM)
Average temperature yesterday: 83 °F

Past Weeks' High & Low Weather Summary

 TemperatureHumidityPressure
High90 °F (Jul 20, 12:00 PM)94% (Jul 20, 6:00 PM)30.12 "Hg (Jul 20, 6:00 PM)
Low79 °F (Jul 20, 5:00 PM)59% (Jul 25, 12:00 PM)29.83 "Hg (Jul 21, 8:00 PM)
Average84 °F72%30.03 "Hg
* Reported Jul 19 11:00 AM — Aug 3 11:00 AM, Basseterre, Weather by CustomWeather, © 2015

Note: Actual official high and low records may vary slightly from our data, if they occured in-between our weather recording intervals... More about our weather records

Advertising

Basseterre weather history for previous 24 hours

 ConditionsComfort  
Time TempWeatherWind HumidityBarometerVisibility
11:00 AM
Mon, Aug 3
86 °FScattered clouds.15 mph70%30.04 "HgN/A
10:00 AM86 °FSprinkles. Partly sunny.17 mph70%30.04 "HgN/A
9:00 AM86 °FPartly sunny.15 mph70%30.01 "HgN/A
8:00 AM84 °FPassing clouds.17 mph70%30.01 "HgN/A
7:00 AM82 °FPassing clouds.20 mph74%30.01 "HgN/A
6:00 AM81 °FPassing clouds.15 mph79%30.01 "HgN/A
10:00 PM
Sun, Aug 2
81 °FPassing clouds.15 mph79%30.01 "HgN/A
9:00 PM81 °FPassing clouds.16 mph84%30.01 "HgN/A
8:00 PM82 °FPassing clouds.16 mph79%29.98 "HgN/A
7:00 PM81 °FPassing clouds.10 mph89%29.95 "HgN/A
6:00 PM81 °FSprinkles. Partly sunny.18 mph89%29.98 "HgN/A
5:00 PM82 °FPassing clouds.14 mph79%29.95 "HgN/A
4:00 PM84 °FScattered clouds.15 mph74%29.95 "HgN/A
3:00 PM79 °FSprinkles. Scattered clouds.10 mph94%29.98 "HgN/A
2:00 PM86 °FPartly sunny.12 mph70%29.98 "HgN/A
1:00 PM88 °FScattered clouds.13 mph66%29.98 "HgN/A
12:00 PM88 °FScattered showers. Scattered clouds.9 mph70%29.98 "HgN/A
Weather by CustomWeather, © 2015

See weather overviewHow to use our weather pages